• In Netherlands
  • List of Countries
  • For 7 days
  • Water Temperature
  • Satellite Maps
  • Weather Map
  • Weather Widgets
  • user-avatar
    Login

    Hourly Weather Sofia

    Today, 19 November, Sunday

    Time Temperature Precipitation Wind Pressure Humidity
    00:00 +6°C° 0 mm 1 mps 708 mmHg 94%
    01:00 +6°C° 0 mm 1 mps 708 mmHg 94%
    02:00 +6°C° 0 mm 1 mps 708 mmHg 95%
    03:00 +6°C° 0 mm 1 mps 708 mmHg 94%
    04:00 +6°C° 0 mm 1 mps 708 mmHg 94%
    05:00 +6°C° 0 mm 1 mps 708 mmHg 94%
    06:00 +6°C° 0 mm 1 mps 707 mmHg 93%
    07:00 +6°C° 0 mm 1 mps 707 mmHg 92%
    08:00 +6°C° 0 mm 1 mps 707 mmHg 91%
    09:00 +7°C° 0 mm 1 mps 708 mmHg 85%
    10:00 +8°C° 0 mm 1 mps 708 mmHg 79%
    11:00 +9°C° 0 mm 1 mps 708 mmHg 72%
    12:00 +8°C° 0 mm 2 mps 707 mmHg 70%
    13:00 +9°C° 0 mm 2 mps 707 mmHg 68%
    14:00 +9°C° 0 mm 2 mps 706 mmHg 66%
    15:00 +9°C° 0 mm 1 mps 706 mmHg 70%
    16:00 +8°C° 0 mm 1 mps 706 mmHg 73%
    17:00 +7°C° 0 mm 1 mps 706 mmHg 77%
    18:00 +7°C° 0 mm 1 mps 705 mmHg 79%
    19:00 +6°C° 0 mm 1 mps 705 mmHg 81%
    20:00 +6°C° 0 mm 1 mps 705 mmHg 83%
    21:00 +6°C° 0 mm 1 mps 705 mmHg 83%
    22:00 +6°C° 0 mm 1 mps 705 mmHg 83%
    23:00 +4°C° 0 mm 0 mps 705 mmHg 83%

    Tomorrow, 20 November, Monday

    Time Temperature Precipitation Wind Pressure Humidity
    00:00 +5°C° 0.8 mm 1 mps 705 mmHg 83%
    01:00 +4°C° 0.8 mm 2 mps 705 mmHg 82%
    02:00 +4°C° 0.8 mm 2 mps 706 mmHg 82%
    03:00 +4°C° 0.8 mm 2 mps 706 mmHg 84%
    04:00 +3°C° 0.8 mm 2 mps 706 mmHg 85%
    05:00 +2°C° 0.8 mm 2 mps 706 mmHg 87%
    06:00 +2°C° 0.4 mm 2 mps 707 mmHg 88%
    07:00 +1°C° 0.4 mm 3 mps 707 mmHg 88%
    08:00 +1°C° 0.4 mm 3 mps 707 mmHg 89%
    09:00 +1°C° 0.4 mm 3 mps 708 mmHg 87%
    10:00 0°C° 0.4 mm 4 mps 709 mmHg 85%
    11:00 +1°C° 0.4 mm 4 mps 709 mmHg 82%
    12:00 +1°C° 0.1 mm 4 mps 709 mmHg 80%
    13:00 +1°C° 0.1 mm 5 mps 709 mmHg 78%
    14:00 +1°C° 0.1 mm 5 mps 709 mmHg 76%
    15:00 +1°C° 0 mm 4 mps 709 mmHg 78%
    16:00 +1°C° 0 mm 3 mps 710 mmHg 80%
    17:00 +1°C° 0 mm 3 mps 710 mmHg 82%
    18:00 0°C° 0 mm 3 mps 710 mmHg 84%
    19:00 +1°C° 0 mm 2 mps 711 mmHg 86%
    20:00 -1°C° 0 mm 2 mps 711 mmHg 88%
    21:00 -1°C° 0 mm 2 mps 711 mmHg 88%
    22:00 -1°C° 0 mm 2 mps 712 mmHg 89%
    23:00 -1°C° 0 mm 2 mps 712 mmHg 89%

    Day after tomorrow, 21 November, Tuesday

    Time Temperature Precipitation Wind Pressure Humidity
    00:00 -2°C° 0 mm 2 mps 712 mmHg 89%
    01:00 -2°C° 0 mm 2 mps 712 mmHg 89%
    02:00 -2°C° 0 mm 2 mps 712 mmHg 89%
    03:00 -2°C° 0 mm 2 mps 712 mmHg 89%
    04:00 -3°C° 0 mm 2 mps 712 mmHg 88%
    05:00 -3°C° 0 mm 2 mps 712 mmHg 88%
    06:00 -2°C° 0 mm 2 mps 712 mmHg 85%
    07:00 -2°C° 0 mm 2 mps 712 mmHg 83%
    08:00 -2°C° 0 mm 2 mps 712 mmHg 81%
    09:00 +1°C° 0 mm 2 mps 712 mmHg 75%
    10:00 +3°C° 0 mm 2 mps 712 mmHg 70%
    11:00 +5°C° 0 mm 2 mps 712 mmHg 65%
    12:00 +6°C° 0 mm 2 mps 712 mmHg 64%
    13:00 +6°C° 0 mm 2 mps 711 mmHg 63%
    14:00 +7°C° 0 mm 2 mps 711 mmHg 62%
    15:00 +6°C° 0 mm 2 mps 711 mmHg 66%
    16:00 +5°C° 0 mm 2 mps 710 mmHg 71%
    17:00 +4°C° 0 mm 2 mps 710 mmHg 75%
    18:00 +4°C° 0 mm 2 mps 710 mmHg 75%
    19:00 +3°C° 0 mm 2 mps 711 mmHg 76%
    20:00 +3°C° 0 mm 2 mps 711 mmHg 76%
    21:00 +3°C° 0 mm 2 mps 711 mmHg 75%
    22:00 +3°C° 0 mm 2 mps 711 mmHg 75%
    23:00 +2°C° 0 mm 2 mps 711 mmHg 74%

    22 November, Wednesday

    Time Temperature Precipitation Wind Pressure Humidity
    00:00 +2°C° 0 mm 2 mps 711 mmHg 74%
    01:00 +2°C° 0 mm 2 mps 711 mmHg 74%
    02:00 +2°C° 0 mm 2 mps 711 mmHg 74%
    03:00 +2°C° 0 mm 2 mps 711 mmHg 74%
    04:00 +2°C° 0 mm 2 mps 711 mmHg 74%
    05:00 +2°C° 0 mm 2 mps 711 mmHg 74%
    06:00 +3°C° 0 mm 2 mps 711 mmHg 74%
    07:00 +3°C° 0 mm 2 mps 711 mmHg 74%
    08:00 +3°C° 0 mm 2 mps 712 mmHg 74%
    09:00 +5°C° 0 mm 2 mps 712 mmHg 70%
    10:00 +7°C° 0 mm 2 mps 712 mmHg 66%
    11:00 +9°C° 0 mm 2 mps 713 mmHg 63%
    12:00 +10°C° 0 mm 2 mps 713 mmHg 62%
    13:00 +10°C° 0 mm 2 mps 712 mmHg 61%
    14:00 +12°C° 0 mm 2 mps 712 mmHg 60%
    15:00 +10°C° 0 mm 2 mps 712 mmHg 65%
    16:00 +9°C° 0 mm 1 mps 712 mmHg 70%
    17:00 +8°C° 0 mm 1 mps 712 mmHg 75%
    18:00 +8°C° 0 mm 1 mps 712 mmHg 76%
    19:00 +7°C° 0 mm 1 mps 713 mmHg 77%
    20:00 +7°C° 0 mm 1 mps 713 mmHg 78%
    21:00 +6°C° 0 mm 1 mps 713 mmHg 78%
    22:00 +6°C° 0 mm 1 mps 713 mmHg 78%
    23:00 +6°C° 0 mm 1 mps 714 mmHg 78%

    23 November, Thursday

    Time Temperature Precipitation Wind Pressure Humidity
    00:00 +6°C° 0 mm 1 mps 714 mmHg 78%
    01:00 +6°C° 0 mm 1 mps 714 mmHg 77%
    02:00 +6°C° 0 mm 1 mps 714 mmHg 77%
    03:00 +6°C° 0 mm 1 mps 714 mmHg 76%
    04:00 +6°C° 0 mm 1 mps 714 mmHg 76%
    05:00 +6°C° 0 mm 1 mps 714 mmHg 75%
    06:00 +6°C° 0 mm 1 mps 714 mmHg 74%
    07:00 +6°C° 0 mm 1 mps 714 mmHg 72%
    08:00 +6°C° 0 mm 1 mps 714 mmHg 71%
    09:00 +8°C° 0 mm 1 mps 715 mmHg 66%
    10:00 +10°C° 0 mm 1 mps 715 mmHg 62%
    11:00 +13°C° 0 mm 1 mps 716 mmHg 57%
    12:00 +13°C° 0 mm 1 mps 715 mmHg 55%
    13:00 +14°C° 0 mm 1 mps 715 mmHg 53%
    14:00 +15°C° 0 mm 1 mps 715 mmHg 52%
    15:00 +13°C° 0 mm 1 mps 715 mmHg 57%
    16:00 +12°C° 0 mm 1 mps 715 mmHg 62%
    17:00 +10°C° 0 mm 1 mps 715 mmHg 67%
    18:00 +9°C° 0 mm 1 mps 715 mmHg 69%
    19:00 +9°C° 0 mm 1 mps 715 mmHg 70%
    20:00 +8°C° 0 mm 1 mps 715 mmHg 72%
    21:00 +8°C° 0 mm 1 mps 716 mmHg 72%
    22:00 +8°C° 0 mm 1 mps 716 mmHg 72%
    23:00 +8°C° 0 mm 1 mps 716 mmHg 71%

    24 November, Friday

    Time Temperature Precipitation Wind Pressure Humidity
    00:00 +7°C° 0 mm 1 mps 716 mmHg 71%
    01:00 +7°C° 0 mm 1 mps 716 mmHg 70%
    02:00 +7°C° 0 mm 1 mps 716 mmHg 70%
    03:00 +7°C° 0 mm 1 mps 716 mmHg 69%
    04:00 +7°C° 0 mm 1 mps 716 mmHg 69%
    05:00 +6°C° 0 mm 1 mps 716 mmHg 68%
    06:00 +7°C° 0 mm 1 mps 716 mmHg 67%
    07:00 +7°C° 0 mm 1 mps 716 mmHg 66%
    08:00 +7°C° 0 mm 1 mps 716 mmHg 65%
    09:00 +9°C° 0 mm 1 mps 717 mmHg 60%
    10:00 +11°C° 0 mm 1 mps 717 mmHg 55%
    11:00 +14°C° 0 mm 1 mps 717 mmHg 49%
    12:00 +14°C° 0 mm 1 mps 717 mmHg 47%
    13:00 +14°C° 0 mm 0 mps 717 mmHg 45%
    14:00 +15°C° 0 mm 0 mps 716 mmHg 43%
    15:00 +13°C° 0 mm 0 mps 716 mmHg 48%
    16:00 +11°C° 0 mm 0 mps 716 mmHg 54%
    17:00 +10°C° 0 mm 0 mps 716 mmHg 60%
    18:00 +9°C° 0 mm 0 mps 716 mmHg 62%
    19:00 +9°C° 0 mm 1 mps 716 mmHg 63%
    20:00 +9°C° 0 mm 1 mps 716 mmHg 65%
    21:00 +9°C° 0 mm 1 mps 717 mmHg 66%
    22:00 +8°C° 0 mm 1 mps 717 mmHg 66%
    23:00 +8°C° 0 mm 1 mps 717 mmHg 67%
    Show more